Location: Cary
(35.7910°N, 78.7810°W)
Time: 03:31:29
(UTC-05:00)

X-37B - Visible Passes

Search period start: 01 December 2021 00:00
Search period end: 11 December 2021 00:00
Orbit: 330 x 341 km, 45.0° (Epoch: 20 November)

Date Brightness Start Highest point End Pass type
(mag) Time Alt. Az. Time Alt. Az. Time Alt. Az.
03 Dec 2.2 18:33:43 10° SSW 18:35:19 21° SSE 18:35:19 21° SSE visible
04 Dec 2.2 18:53:35 10° SW 18:55:10 29° SW 18:55:10 29° SW visible
05 Dec 1.9 17:39:09 10° SSW 17:41:33 24° SE 17:43:42 11° E visible
05 Dec 3.6 19:14:16 10° W 19:14:56 15° W 19:14:56 15° W visible
06 Dec 0.2 17:59:01 10° SW 18:01:52 81° SE 18:03:24 24° ENE visible
07 Dec 1.4 18:19:41 10° W 18:22:22 35° NNW 18:23:02 30° N visible
08 Dec 2.5 18:40:52 10° WNW 18:42:38 19° NNW 18:42:38 19° NNW visible
09 Dec 1.4 17:25:06 10° W 17:27:48 35° NNW 17:30:29 10° NE visible
10 Dec 2.3 17:46:16 10° WNW 17:48:27 19° NNW 17:50:30 11° NNE visible
